Wind_Speed
19 18 18 17 17 17 17 17 17 17 17 16 15 15 15 15 15 15 14 14 14 14 13 13 13 13 13 13 13 14 14 14 14 14 14 14 14 14 15 15 15 16 17
20 19 19 19 18 18 18 18 18 17 17 17 17 16 17 17 16 16 16 15 14 14 14 14 15 14 15 15 14 15 15 15 16 16 17 16 15 15 16 17 17 17 18
21 21 21 21 20 20 19 19 19 19 18 18 18 18 18 18 18 17 17 16 16 16 16 16 15 15 15 16 16 16 17 17 18 18 18 18 17 17 17 18 18 18 19
22 22 22 22 22 21 21 21 21 20 20 20 20 20 20 19 20 19 19 18 17 17 17 17 16 16 16 17 17 18 18 19 19 19 19 19 19 19 19 19 19 20 21
23 23 23 23 23 23 23 23 22 22 22 22 22 22 22 21 21 21 21 20 20 19 19 18 17 18 19 19 20 20 20 20 21 21 20 20 21 21 22 22 22 22 23
24 24 23 24 24 24 24 24 23 23 23 24 24 24 23 23 22 22 22 22 22 21 21 21 21 20 20 21 22 22 22 22 22 22 23 23 23 23 24 24 25 25 25
26 26 25 25 25 25 25 24 25 25 25 25 25 25 24 24 24 23 23 23 23 23 23 23 23 23 23 23 23 23 24 25 25 25 25 24 24 25 26 26 26 26 27
26 26 26 25 25 25 25 25 26 26 26 25 25 25 25 23 23 23 23 24 24 24 24 24 24 24 24 25 25 25 25 26 27 26 26 27 27 27 28 28 29 28 28
26 26 25 25 25 26 26 27 26 26 26 26 25 25 24 23 23 23 24 24 25 25 25 26 26 26 26 27 27 27 27 26 26 27 28 29 29 30 30 30 30 30 29
27 26 26 26 26 26 27 27 27 27 27 25 26 25 24 24 24 24 24 25 25 25 26 26 26 26 27 27 27 27 27 27 28 29 29 30 30 30 31 31 31 31 31
28 28 28 28 28 27 27 27 28 28 27 26 25 24 24 24 25 25 25 26 27 27 27 26 26 27 27 27 28 28 27 27 27 28 29 29 30 30 31 31 31 32 31
28 28 28 28 28 28 27 27 28 29 28 28 27 26 25 25 26 27 27 27 27 27 27 27 27 27 27 27 28 28 28 28 28 28 29 30 30 30 30 31 31 32 31
28 28 28 28 28 27 27 27 28 29 29 28 27 27 27 27 28 28 28 28 28 28 28 28 27 27 28 28 28 29 29 28 28 29 29 30 30 30 31 31 31 31 31
28 28 28 28 28 28 28 28 27 28 29 29 28 28 28 28 28 29 29 29 29 28 28 28 28 28 29 29 29 30 30 29 29 30 30 30 30 31 31 31 31 31 31
27 27 27 28 27 27 27 27 27 27 27 28 28 29 28 29 29 30 29 29 30 30 30 30 29 29 30 31 30 30 30 30 31 31 30 31 31 30 31 31 32 32 32
26 26 26 26 26 26 26 27 27 27 27 27 28 29 29 29 29 29 29 30 29 30 31 31 31 31 31 31 30 30 31 31 31 31 30 31 31 31 31 32 32 32 31
25 25 25 25 26 26 26 27 28 27 27 27 27 28 28 29 28 29 29 30 30 31 31 32 32 32 32 32 31 31 31 31 31 31 31 31 31 31 31 31 31 31 30
24 25 24 24 24 25 25 26 27 27 26 26 26 27 28 28 28 29 30 31 31 32 32 32 32 32 32 32 31 30 30 30 31 31 31 31 31 31 31 30 30 30 29
23 24 24 25 25 25 26 26 27 27 27 26 26 26 27 28 29 30 31 32 32 32 32 32 31 31 31 30 30 29 29 30 30 30 31 31 31 31 30 30 29 29 29
24 24 24 25 26 26 26 26 27 27 27 27 26 26 27 28 29 30 31 31 31 31 31 31 30 30 30 30 30 30 30 30 30 31 31 30 30 30 31 31 30 30 29
25 26 25 25 26 26 26 26 26 26 26 27 27 27 28 29 29 29 30 30 30 29 29 30 30 30 30 30 30 31 31 30 29 29 29 29 29 29 29 30 30 30 29
25 25 25 25 26 26 25 26 26 26 27 27 27 27 27 28 28 28 28 29 29 29 30 31 31 31 30 30 30 30 30 29 29 29 29 29 29 29 29 29 30 30 29
25 25 26 26 26 26 25 26 26 26 27 26 26 26 26 27 28 28 28 29 30 30 30 31 30 30 30 30 30 30 29 29 28 28 28 28 28 28 29 29 29 28 28
24 24 25 25 25 25 26 26 27 26 25 24 25 26 26 27 27 28 28 29 29 30 30 30 30 30 31 30 30 30 29 29 28 28 27 27 28 28 28 28 28 28 27
23 24 24 24 25 25 25 26 26 26 26 26 26 27 27 28 28 28 29 29 29 29 29 29 30 30 30 29 29 28 29 28 27 28 28 28 28 28 28 28 29 28 27
21 21 22 23 24 24 25 25 25 25 26 26 27 27 28 28 28 28 28 28 28 28 29 29 29 29 28 28 27 27 27 27 27 27 27 27 27 27 27 27 27 27 26
Wind_Direction
280 281 283 284 285 286 285 283 281 282 282 282 284 285 286 289 292 292 294 294 292 293 296 297 298 296 293 295 287 284 285 286 290 291 290 287 286 285 286 287 288 286 285
277 277 279 281 282 284 284 282 280 280 280 280 282 284 285 286 290 291 291 290 288 291 294 297 299 295 291 293 289 286 286 286 287 289 291 289 286 285 284 284 286 287 286
276 276 276 278 280 281 283 281 278 278 277 277 279 282 284 285 287 289 289 287 286 288 290 292 294 294 291 291 290 288 287 285 285 288 288 288 287 286 286 283 283 286 286
273 274 275 275 277 278 278 279 277 276 277 277 279 281 283 284 284 286 286 285 285 287 288 288 290 290 289 291 291 290 288 286 285 285 287 286 286 285 284 284 283 284 286
271 271 272 273 274 276 276 276 274 273 275 277 280 280 281 282 283 283 282 283 284 285 285 285 285 287 290 291 291 290 290 288 287 286 286 284 283 283 284 284 285 286 287
274 273 273 273 273 274 274 274 273 274 275 276 278 278 279 280 281 280 281 281 282 282 282 282 284 286 287 289 290 290 290 290 290 288 286 284 282 283 283 285 286 285 285
271 273 273 273 273 274 274 274 272 274 274 274 276 276 277 279 279 279 279 279 280 280 281 282 283 284 285 287 288 289 289 288 289 289 287 287 286 285 285 285 286 285 285
272 270 270 273 274 274 273 273 274 275 276 275 275 274 275 276 277 276 277 280 280 281 282 282 282 282 285 286 287 287 288 287 286 287 288 289 289 288 288 286 286 287 286
271 269 270 273 274 274 274 273 273 274 274 273 275 275 275 274 275 276 276 278 279 281 281 282 280 283 286 287 287 286 285 284 284 286 286 287 288 289 289 289 289 288 287
271 271 271 273 275 276 274 273 272 271 271 272 273 273 272 273 275 276 276 278 279 280 282 284 282 284 286 287 288 287 286 286 286 286 286 287 288 288 288 289 290 289 288
271 272 272 272 274 275 275 273 271 270 269 270 271 272 272 273 275 276 277 278 280 281 282 282 283 284 285 286 287 287 286 287 287 288 288 288 288 288 288 288 289 289 289
271 271 272 272 273 274 274 273 272 270 269 269 270 272 273 275 275 276 277 279 280 282 282 282 283 285 287 287 287 287 287 287 287 288 288 288 288 288 288 289 289 289 289
272 272 272 271 271 273 273 273 273 271 271 272 271 271 272 275 277 276 277 278 279 280 281 280 281 284 285 286 286 286 286 287 288 288 288 289 288 288 289 288 289 289 287
272 271 270 270 271 272 273 272 273 272 272 273 272 271 272 274 275 276 277 277 277 279 281 281 282 284 284 286 286 287 287 288 289 289 288 288 288 288 287 288 288 288 286
271 272 271 272 271 271 272 273 273 274 273 274 273 273 272 273 275 275 276 277 277 279 282 282 282 283 284 285 286 287 288 288 289 289 288 288 289 288 288 288 288 288 287
273 274 274 273 273 272 272 272 273 274 274 274 274 275 275 275 274 275 276 276 277 279 280 281 281 282 283 285 286 288 288 288 289 289 289 289 288 289 289 289 289 288 287
275 275 275 274 272 272 273 273 273 273 274 275 275 275 276 274 274 274 275 276 278 280 281 282 282 283 283 285 286 286 287 287 288 289 289 289 289 288 288 288 289 288 287
276 276 275 275 275 275 275 275 275 275 274 274 274 274 274 274 273 273 275 277 278 279 280 281 281 282 283 285 286 287 287 288 288 287 288 289 289 289 289 289 290 290 289
276 275 274 275 276 277 279 279 278 276 274 274 274 274 274 273 273 273 276 278 278 279 281 281 280 281 283 284 285 287 289 289 287 286 288 290 290 290 290 291 291 290 289
278 277 276 276 278 279 280 281 280 277 274 275 275 275 276 277 276 276 276 278 278 278 280 280 280 281 282 284 285 287 288 289 287 286 288 290 291 290 291 292 291 290 289
278 278 277 277 278 279 280 280 279 277 275 273 274 276 277 277 277 277 277 277 277 278 280 282 282 282 283 285 286 287 288 288 288 287 288 289 290 289 290 291 292 291 289
277 278 279 279 279 280 279 279 279 278 278 276 276 276 277 277 277 278 279 278 279 279 279 280 281 282 284 285 285 287 288 288 288 288 288 288 288 289 291 291 292 291 289
279 279 280 279 278 279 279 279 279 279 279 278 278 277 277 279 279 278 278 277 278 280 281 280 280 281 283 285 286 287 288 288 288 288 288 287 288 291 292 292 292 292 290
281 280 280 279 278 279 280 280 280 280 280 278 276 277 277 278 279 280 281 280 279 280 281 281 280 281 283 284 284 285 286 286 286 286 287 288 289 290 291 291 291 291 290
282 281 279 279 280 281 282 282 281 281 281 281 280 279 279 279 280 282 282 282 282 281 281 282 282 282 282 282 283 285 285 284 283 285 287 288 289 290 290 290 291 290 289
282 283 282 281 281 282 282 282 282 282 283 283 283 282 282 282 283 285 286 285 284 282 281 282 283 281 280 281 282 283 284 284 284 285 287 288 288 289 290 291 291 289 288
Height
5843 5843 5843 5843 5842 5842 5841 5841 5841 5841 5841 5841 5841 5842 5842 5842 5842 5842 5841 5840 5840 5840 5839 5839 5838 5838 5837 5837 5836 5836 5836 5836 5835 5836 5835 5835 5834 5834 5834 5834 5833 5833 5833
5839 5839 5838 5838 5838 5838 5837 5837 5837 5837 5837 5838 5838 5838 5838 5838 5838 5838 5837 5837 5837 5837 5836 5835 5835 5834 5834 5833 5832 5832 5832 5831 5832 5831 5831 5830 5830 5830 5829 5829 5828 5828 5828
5834 5834 5834 5834 5834 5833 5833 5833 5833 5833 5833 5833 5834 5834 5834 5834 5834 5834 5833 5833 5833 5832 5832 5831 5831 5830 5830 5829 5829 5828 5828 5827 5827 5827 5826 5825 5825 5824 5824 5824 5823 5823 5822
5828 5828 5828 5829 5829 5828 5828 5828 5828 5829 5829 5829 5829 5830 5830 5830 5830 5830 5829 5829 5829 5828 5828 5827 5826 5826 5825 5825 5824 5823 5823 5822 5822 5821 5821 5820 5820 5819 5818 5818 5818 5817 5817
5822 5822 5822 5823 5823 5823 5823 5823 5823 5823 5824 5824 5824 5825 5825 5825 5825 5825 5825 5824 5824 5824 5823 5822 5822 5821 5821 5820 5819 5818 5817 5817 5816 5815 5815 5814 5814 5813 5813 5812 5811 5811 5810
5816 5817 5817 5817 5817 5817 5817 5817 5817 5817 5818 5818 5819 5819 5819 5819 5819 5819 5819 5819 5819 5818 5818 5818 5817 5817 5815 5814 5813 5812 5811 5810 5810 5809 5809 5808 5808 5807 5806 5805 5805 5804 5803
5810 5811 5811 5811 5810 5811 5811 5811 5811 5811 5811 5812 5812 5812 5813 5813 5813 5813 5813 5813 5813 5812 5812 5812 5811 5811 5810 5808 5807 5806 5805 5804 5804 5803 5802 5801 5801 5800 5799 5798 5797 5797 5796
5803 5804 5804 5804 5804 5804 5804 5804 5804 5804 5805 5805 5805 5806 5806 5806 5806 5807 5806 5806 5806 5806 5806 5805 5805 5804 5803 5802 5800 5800 5799 5798 5797 5796 5795 5794 5793 5792 5791 5790 5789 5788 5787
5797 5796 5797 5797 5797 5797 5797 5797 5797 5798 5798 5798 5798 5798 5799 5800 5800 5800 5800 5799 5799 5799 5799 5798 5798 5797 5796 5795 5793 5792 5791 5790 5789 5788 5788 5786 5785 5784 5783 5782 5781 5780 5779
5789 5789 5790 5790 5790 5790 5790 5790 5790 5790 5791 5791 5792 5791 5792 5793 5793 5793 5793 5793 5793 5793 5792 5791 5790 5790 5789 5787 5786 5785 5784 5783 5782 5781 5780 5778 5777 5776 5774 5773 5772 5771 5769
5783 5783 5783 5783 5783 5783 5782 5782 5782 5782 5783 5784 5784 5784 5784 5785 5786 5786 5786 5786 5785 5785 5784 5783 5783 5782 5781 5780 5778 5777 5776 5775 5774 5773 5771 5770 5769 5767 5766 5764 5763 5761 5760
5776 5776 5776 5776 5775 5775 5775 5774 5774 5774 5775 5776 5776 5777 5777 5777 5778 5778 5778 5778 5778 5777 5776 5775 5775 5774 5773 5772 5771 5769 5768 5767 5766 5765 5763 5762 5760 5759 5757 5755 5754 5752 5751
5768 5768 5768 5768 5768 5767 5767 5767 5766 5767 5767 5768 5768 5769 5769 5770 5770 5770 5770 5770 5770 5769 5768 5768 5767 5766 5765 5764 5762 5761 5760 5758 5757 5756 5755 5753 5752 5750 5748 5746 5745 5743 5742
5760 5760 5760 5760 5760 5760 5759 5759 5759 5759 5759 5760 5760 5760 5761 5762 5762 5762 5762 5762 5762 5761 5760 5760 5759 5758 5756 5755 5754 5752 5751 5750 5749 5747 5746 5744 5743 5741 5739 5737 5736 5734 5733
5753 5753 5752 5752 5752 5752 5751 5751 5751 5751 5751 5751 5751 5751 5752 5753 5753 5753 5753 5753 5753 5753 5752 5751 5750 5749 5748 5747 5746 5744 5742 5741 5740 5738 5736 5735 5733 5732 5730 5728 5727 5725 5723
5745 5745 5744 5744 5744 5744 5743 5743 5743 5743 5742 5742 5742 5743 5743 5744 5744 5744 5744 5744 5744 5743 5743 5743 5742 5741 5740 5738 5737 5735 5734 5732 5731 5729 5727 5726 5724 5722 5721 5719 5717 5715 5714
5738 5737 5737 5736 5736 5736 5735 5735 5735 5735 5734 5734 5734 5735 5735 5735 5736 5736 5735 5735 5735 5735 5734 5734 5733 5732 5730 5729 5727 5726 5724 5723 5721 5719 5718 5716 5714 5713 5711 5710 5708 5706 5704
5731 5730 5729 5729 5728 5728 5728 5727 5727 5727 5727 5727 5727 5727 5727 5727 5727 5727 5727 5727 5726 5726 5725 5724 5723 5722 5721 5719 5718 5716 5714 5713 5711 5710 5708 5706 5705 5703 5702 5700 5698 5696 5694
5724 5723 5722 5722 5721 5721 5720 5719 5719 5719 5719 5719 5718 5719 5719 5718 5718 5718 5718 5718 5717 5716 5715 5714 5713 5712 5711 5710 5708 5707 5705 5703 5702 5700 5699 5697 5696 5694 5692 5690 5689 5687 5685
5717 5716 5715 5714 5714 5713 5712 5711 5711 5710 5710 5710 5710 5710 5710 5710 5709 5709 5709 5708 5708 5707 5706 5705 5704 5703 5702 5701 5699 5698 5696 5694 5693 5691 5689 5688 5686 5684 5683 5681 5679 5678 5676
5709 5709 5708 5707 5706 5705 5704 5704 5703 5702 5701 5701 5702 5702 5701 5701 5700 5700 5699 5699 5698 5698 5697 5696 5695 5694 5693 5692 5690 5688 5687 5685 5683 5682 5680 5679 5677 5675 5673 5672 5670 5668 5666
5701 5701 5700 5699 5699 5698 5697 5696 5695 5695 5693 5692 5693 5693 5693 5692 5692 5691 5690 5689 5689 5689 5688 5687 5686 5685 5684 5682 5681 5679 5677 5676 5674 5673 5671 5670 5668 5666 5665 5663 5661 5659 5658
5694 5693 5692 5692 5691 5690 5689 5688 5688 5687 5686 5685 5685 5685 5684 5684 5683 5682 5681 5681 5680 5680 5679 5678 5677 5675 5674 5673 5671 5670 5668 5667 5666 5664 5662 5661 5659 5658 5656 5654 5652 5650 5649
5686 5685 5685 5684 5683 5683 5682 5681 5679 5678 5678 5677 5677 5676 5676 5675 5674 5673 5672 5671 5671 5670 5669 5668 5667 5666 5665 5663 5662 5661 5659 5658 5657 5655 5654 5652 5651 5649 5648 5646 5644 5642 5641
5679 5678 5677 5676 5676 5675 5674 5673 5671 5670 5670 5669 5669 5668 5667 5666 5665 5664 5663 5662 5661 5660 5660 5659 5657 5656 5655 5654 5653 5652 5650 5649 5648 5647 5645 5644 5642 5641 5639 5637 5636 5634 5633
5672 5671 5670 5669 5668 5667 5666 5665 5664 5663 5662 5661 5660 5659 5658 5657 5657 5656 5654 5653 5652 5651 5650 5650 5649 5648 5647 5646 5645 5643 5642 5641 5640 5638 5637 5635 5634 5632 5631 5629 5627 5626 5624